Oceana NAS, VA

11:45 AM EDT on April 27, 2017 (GMT -0400)
Oceana Naval Air Station

Weather History for KNTU - February, 2013

Change the Weather History Date:

Friday, February 1, 2013

  Actual Average Record
Temperature  
Mean Temperature 34 °F -  
Max Temperature 43 °F 47 °F 80 °F (2002)
Min Temperature 25 °F 31 °F 19 °F (2004)
Degree Days  
Heating Degree Days 30    
Moisture  
Dew Point 14 °F    
Average Humidity 44    
Maximum Humidity 61    
Minimum Humidity 22    
Precipitation  
Precipitation 0.00 in - - ()
Sea Level Pressure  
Sea Level Pressure 30.09 in    
Wind  
Wind Speed 13 mph (WNW)    
Max Wind Speed 26 mph    
Max Gust Speed 41 mph    
Visibility 10 miles    
Events Rain    
Averages and records for this station are not official NWS values.
T = Trace of Precipitation, MM = Missing Value Source: NWS Daily Summary

Daily Weather History Graph

Daily Weather History Graph

Search for Another Location

Airport or City:

Trip Planner

Search our weather history database for the weather conditions in past years. The results will help you decide how hot, cold, wet, or windy it might be!

Date:

Astronomy

Feb. 01, 2013 Rise Set
Actual Time 7:06 AM EST 5:29 PM EST
Civil Twilight 6:38 AM EST 5:57 PM EST
Nautical Twilight 6:07 AM EST 6:28 PM EST
Astronomical Twilight 5:37 AM EST 6:58 PM EST
Moon 11:23 PM EST (2/1) 9:48 AM EST (2/1)
Length of Visible Light 11h 18m
Length of Day
10h 23m
Waning Gibbous, 70% of the Moon is Illuminated
Feb 1
Waning Gibbous
Feb 3
Last Quarter
Feb 10
New
Feb 17
First Quarter
Feb 25
Full

Hourly Weather History & Observations

Time (EST) Temp. Windchill Dew Point Humidity Pressure Visibility Wind Dir Wind Speed Gust Speed Precip Events Conditions
12:56 AM 37.0 °F 31.0 °F 19.0 °F 48% 30.01 in 10.0 mi West 8.1 mph - N/A   Clear
1:56 AM 36.0 °F 32.1 °F 19.0 °F 50% 30.01 in 10.0 mi SW 4.6 mph - N/A   Clear
2:56 AM 32.0 °F 27.5 °F 19.0 °F 59% 29.98 in 10.0 mi SSE 4.6 mph - N/A   Clear
3:56 AM 35.1 °F 28.6 °F 21.0 °F 57% 29.94 in 10.0 mi South 8.1 mph - N/A   Clear
4:56 AM 37.0 °F 29.8 °F 21.0 °F 52% 29.89 in 10.0 mi South 10.4 mph - N/A   Partly Cloudy
5:56 AM 39.0 °F 30.6 °F 23.0 °F 53% 29.86 in 10.0 mi SSW 15.0 mph - N/A   Partly Cloudy
6:56 AM 39.0 °F 30.6 °F 25.0 °F 57% 29.87 in 10.0 mi SW 15.0 mph 21.9 mph N/A   Mostly Cloudy
7:56 AM 41.0 °F 32.5 °F 26.1 °F 55% 29.89 in 10.0 mi WSW 17.3 mph - N/A   Scattered Clouds
8:56 AM 43.0 °F 33.3 °F 26.1 °F 51% 29.93 in 10.0 mi West 25.3 mph 41.4 mph N/A   Mostly Cloudy
9:23 AM 39.2 °F 28.0 °F 26.6 °F 61% 29.96 in 7.0 mi NW 26.5 mph 38.0 mph 0.00 in Rain Light Rain
9:56 AM 39.9 °F 29.7 °F 24.1 °F 53% 30.00 in 10.0 mi NW 23.0 mph 29.9 mph 0.00 in   Mostly Cloudy
10:20 AM 39.2 °F 29.3 °F 26.6 °F 61% 30.02 in 9.0 mi WNW 20.7 mph 27.6 mph 0.00 in   Unknown
10:38 AM 39.2 °F 30.2 °F 24.8 °F 56% 30.02 in 9.0 mi NW 17.3 mph 27.6 mph 0.00 in   Overcast
10:56 AM 37.9 °F 26.8 °F 16.0 °F 41% 30.04 in 10.0 mi NW 24.2 mph 35.7 mph 0.00 in   Mostly Cloudy
11:56 AM 39.0 °F 28.3 °F 8.1 °F 28% 30.08 in 10.0 mi WNW 24.2 mph 38.0 mph N/A   Scattered Clouds
12:56 PM 39.0 °F 27.8 °F 3.0 °F 22% 30.10 in 10.0 mi WNW 26.5 mph 36.8 mph N/A   Scattered Clouds
1:56 PM 39.0 °F 28.5 °F 3.9 °F 23% 30.12 in 10.0 mi WNW 23.0 mph 32.2 mph N/A   Scattered Clouds
2:56 PM 37.9 °F 29.6 °F 5.0 °F 25% 30.14 in 10.0 mi WNW 13.8 mph 29.9 mph N/A   Scattered Clouds
3:56 PM 36.0 °F 25.3 °F 7.0 °F 30% 30.18 in 10.0 mi NW 19.6 mph - N/A   Scattered Clouds
4:56 PM 34.0 °F 23.0 °F 3.0 °F 27% 30.23 in 10.0 mi NW 18.4 mph 24.2 mph N/A   Partly Cloudy
5:56 PM 32.0 °F 24.2 °F 3.9 °F 31% 30.26 in 10.0 mi NW 9.2 mph 20.7 mph N/A   Partly Cloudy
6:56 PM 30.9 °F 22.8 °F 3.0 °F 31% 30.29 in 10.0 mi NW 9.2 mph - N/A   Clear
7:56 PM 28.9 °F 19.8 °F 5.0 °F 36% 30.31 in 10.0 mi NW 10.4 mph - N/A   Clear
8:56 PM 28.9 °F 23.9 °F 3.9 °F 35% 30.33 in 10.0 mi WNW 4.6 mph - N/A   Clear
9:56 PM 28.9 °F 23.9 °F 5.0 °F 36% 30.35 in 10.0 mi WNW 4.6 mph - N/A   Clear
10:56 PM 26.1 °F 20.5 °F 8.1 °F 47% 30.37 in 10.0 mi West 4.6 mph - N/A   Clear
11:56 PM 25.0 °F 20.7 °F 9.0 °F 51% 30.38 in 10.0 mi NNW 3.5 mph - N/A   Clear